Regional Weather Roundup
Issued by NWS

Home | Current Version | Previous Version | Text Only | Print | Product List | Glossary On
Versions: 1 2 3 4 5 6 7 8 9 10 11 12 13 14 15 16 17 18 19 20 21 22 23 24 25 26 27 28 29 30 31 32 33 34 35 36 37 38 39 40 41 42 43 44 45 46 47 48 49 50
000
ASUS43 KFSD 122010
RWRSD

WEATHER ROUNDUP FOR SOUTH DAKOTA
NATIONAL WEATHER SERVICE SIOUX FALLS SD
200 PM CST TUE DEC 12 2017

NOTE: "FAIR" INDICATES FEW OR NO CLOUDS BELOW 12,000 FEET WITH NO
SIGNIFICANT WEATHER AND/OR OBSTRUCTIONS TO VISIBILITY.


SDZ001>005-009-010-012>017-122100-
NORTHWEST AND NORTH CENTRAL SOUTH DAKOTA

CITY           SKY/WX    TMP DP  RH WIND       PRES   REMARKS
BUFFALO          N/A     58  21  24 W17       29.91F
FAITH            N/A     56  23  27 W14       29.95F
MOBRIDGE       SUNNY     51  27  39 W5        29.88F
$$

SDZ012>016-024>037-041>051-057-063-072>074-122100-
SOUTHWEST AND SOUTH CENTRAL SOUTH DAKOTA

CITY           SKY/WX    TMP DP  RH WIND       PRES   REMARKS
RAPID CTY ARPT SUNNY     59  17  19 S5        30.02F
PIERRE         SUNNY     50  27  40 W13       29.95F
CUSTER         SUNNY     57   7  13 NW15G22   30.09F
ELLSWORTH AFB  SUNNY     60  17  18 S6        30.01F
PHILIP         SUNNY     58  22  24 W12       29.99F
PINE RIDGE     SUNNY     55  24  30 W12       30.07F
SPEARFISH      FAIR      59  14  17 W20G25    30.04F
WINNER         FAIR      58  18  21 W12       30.00F
$$

SDZ004>011-016>023-039-040-122100-
NORTHEAST SOUTH DAKOTA

CITY           SKY/WX    TMP DP  RH WIND       PRES   REMARKS
ABERDEEN       SUNNY     47  28  47 SW15      29.91F
WATERTOWN      CLOUDY    37  30  75 SW16      29.94F
BROOKINGS      CLOUDY    38  28  67 SW13      29.98F
SISSETON         N/A     41  30  65 W24       29.86F
$$

SDZ017-020-022-023-036>040-048>070-122100-
SOUTHEAST SOUTH DAKOTA

CITY           SKY/WX    TMP DP  RH WIND       PRES   REMARKS
SIOUX FALLS    CLOUDY    40  31  70 SW10      30.02F
HURON          SUNNY     46  28  49 W15       29.97F
CHAMBERLAIN    SUNNY     52  24  33 SW12G17   29.99F
MITCHELL       SUNNY     45  30  55 SW10      30.01F
YANKTON        CLOUDY    44  28  53 SW10      30.05F
$$

ABBREVIATIONS USED IN REMARKS
   TC - TEMPERATURE IN CELSIUS
  WCI - WIND CHILL INDEX
   HX - HEAT INDEX
  VSB - VISIBILITY





USA.gov is the U.S. government's official web portal to all federal, state and local government web resources and services.